Stations météo

réclame
Mon MeteoGroup
Ölands Södra Udde, Suède (2644): Température de l'air & dewpoint: 19.08.2019 02:00:00 - 25.08.2019 02:00:00 (CEST)Ölands Södra Udde, Suède (2644): Vitesse du vent & gusts: 19.08.2019 02:00:00 - 25.08.2019 02:00:00 (CEST)Ölands Södra Udde, Suède (2644): Direction du vent: 19.08.2019 02:00:00 - 25.08.2019 02:00:00 (CEST)Ölands Södra Udde, Suède (2644): reduced air pressure: 19.08.2019 02:00:00 - 25.08.2019 02:00:00 (CEST)Ölands Södra Udde, Suède (2644): visibility: 19.08.2019 02:00:00 - 25.08.2019 02:00:00 (CEST)Ölands Södra Udde, Suède (2644): Quantités de précipitations: 19.08.2019 02:00:00 - 25.08.2019 02:00:00 (CEST)
Date & Time tt [°C] td [°C] ff [km/h] ff [knt] fx [km/h] fx [knt] dd ppp [hPa] vv [km] rr [mm]
25.08.2019 02:00:00 13,8 13,6 7 4 9 5 E 1026,6 0,3 0,0
25.08.2019 01:00:00 14,3 14,1 8 4 10 5 ESE 1026,7 0,2 0,0
25.08.2019 00:00:00 16,3 16,1 9 5 10 5 ESE 1026,6 0,5 0,0
24.08.2019 23:00:00 16,6 16,3 8 4 9 5 SE 1026,5 4,5 0,0
24.08.2019 22:00:00 17,0 16,7 7 4 9 5 SE 1026,5 3,8 0,0
24.08.2019 21:00:00 17,4 16,6 8 4 11 6 SSE 1026,3 8 0,0
24.08.2019 20:00:00 18,3 17,1 9 5 11 6 S 1026,0 12 0,0
24.08.2019 19:00:00 18,7 16,8 8 4 11 6 SSE 1026,0 20 0,0
24.08.2019 18:00:00 20,1 17,3 10 5 15 8 S 1026,1 24 0,0
24.08.2019 17:00:00 20,5 17,3 12 7 15 8 SSW 1026,1 25 0,0
24.08.2019 16:00:00 21,3 17,5 12 7 17 9 SSW 1026,3 20 0,0
24.08.2019 15:00:00 21,2 17,8 12 6 16 8 S 1026,5 21 0,0
24.08.2019 14:00:00 20,2 17,0 9 5 13 7 S 1026,8 23 0,0
24.08.2019 13:00:00 20,7 16,5 8 5 10 6 S 1026,7 24 0,0
24.08.2019 12:00:00 20,9 15,0 6 3 8 5 S 1026,9 26 0,0
24.08.2019 11:00:00 21,2 16,2 4 2 10 6 W 1026,8 31 0,0
24.08.2019 10:00:00 19,0 15,9 8 4 12 7 NNW 1026,6 29 0,0
24.08.2019 09:00:00 18,6 16,2 7 4 11 6 NNW 1026,3 30 0,0
24.08.2019 08:00:00 18,2 16,0 6 3 11 6 NW 1026,1 27 0,0
24.08.2019 07:00:00 17,4 15,9 8 5 11 6 NW 1026,0 25 0,0
24.08.2019 06:00:00 17,1 15,6 8 4 11 6 WNW 1025,8 33 0,0
24.08.2019 05:00:00 17,1 15,8 8 4 15 8 W 1025,7 29 0,0
24.08.2019 04:00:00 17,6 16,1 8 5 16 9 W 1025,5 28 0,0
24.08.2019 03:00:00 18,1 16,3 13 7 18 10 W 1025,3 35 0,0
24.08.2019 02:00:00 17,6 16,3 11 6 17 9 WSW 1025,0 23 0,0
24.08.2019 01:00:00 17,6 16,5 11 6 17 9 WSW 1024,9 17 0,0
24.08.2019 00:00:00 17,6 16,5 13 7 20 11 WSW 1024,6 12 0,0
23.08.2019 23:00:00 17,9 16,4 13 7 23 12 WSW 1024,6 12 0,0
23.08.2019 22:00:00 17,7 16,2 14 8 23 13 WSW 1024,6 11 0,0
23.08.2019 21:00:00 17,9 16,1 16 9 27 15 WSW 1024,5 12 0,0
23.08.2019 20:00:00 18,3 16,1 17 9 30 16 WSW 1024,0 14 0,0
23.08.2019 19:00:00 19,1 15,8 21 11 32 18 SW 1023,8 17 0,0
23.08.2019 18:00:00 19,7 15,3 23 12 33 18 SW 1023,8 18 0,0
23.08.2019 17:00:00 20,2 15,6 18 10 31 17 SW 1023,9 21 0,0
23.08.2019 16:00:00 20,9 15,4 16 9 30 16 SW 1024,2 21 0,0
23.08.2019 15:00:00 20,3 16,5 21 12 29 16 SSW 1024,1 22 0,0
23.08.2019 14:00:00 19,9 16,5 19 10 29 16 SSW 1024,6 17 0,0
23.08.2019 13:00:00 20,3 16,5 16 9 28 15 SW 1024,8 23 0,0
23.08.2019 12:00:00 20,5 17,1 15 8 29 16 SW 1024,9 24 0,0
23.08.2019 11:00:00 20,1 16,9 17 9 25 14 SW 1024,7 26 0,0
23.08.2019 10:00:00 19,0 16,8 18 10 25 14 SSW 1024,6 22 0,0
23.08.2019 09:00:00 18,8 16,8 13 7 26 14 SW 1024,4 22 0,0
23.08.2019 08:00:00 18,6 16,4 14 8 26 14 SW 1024,2 25 0,0
23.08.2019 07:00:00 18,7 16,3 15 8 24 13 SW 1024,1 21 0,0
23.08.2019 06:00:00 18,4 16,2 17 9 27 14 SW 1024,0 22 0,0
23.08.2019 05:00:00 18,5 16,1 16 9 26 14 SW 1023,9 28 0,0
23.08.2019 04:00:00 18,4 16,0 21 12 27 15 SSW 1024,1 33 0,0
23.08.2019 03:00:00 18,2 16,0 21 12 28 15 SSW 1024,5 29 0,0
23.08.2019 02:00:00 18,3 16,5 23 13 29 16 S 1024,7 28 0,0
23.08.2019 01:00:00 18,2 16,4 24 13 31 17 S 1024,9 27 0,0
23.08.2019 00:00:00 18,1 16,1 25 14 36 19 S 1025,1 28 0,0
22.08.2019 23:00:00 18,2 15,5 29 16 39 21 S 1025,5 35 0,0
22.08.2019 22:00:00 18,2 14,5 29 16 36 19 S 1025,7 42 0,0
22.08.2019 21:00:00 18,1 14,8 24 13 31 17 S 1025,9 44 0,0
22.08.2019 20:00:00 18,1 14,6 23 12 29 16 S 1025,8 44 0,0
22.08.2019 19:00:00 18,5 14,4 23 13 30 16 S 1025,9 45 0,0
22.08.2019 18:00:00 18,9 14,4 22 12 29 16 SSW 1026,3 38 0,0
22.08.2019 17:00:00 19,3 13,5 20 11 29 16 SSW 1027,0 38 0,0
22.08.2019 16:00:00 20,0 14,1 18 10 27 14 SSW 1027,3 38 0,0
22.08.2019 15:00:00 19,8 13,5 17 9 26 14 SSW 1027,6 30 0,0
22.08.2019 14:00:00 20,0 13,5 16 9 26 14 SSW 1028,0 35 0,0
22.08.2019 13:00:00 19,3 13,5 17 9 30 16 SW 1028,3 39 0,0
22.08.2019 12:00:00 19,4 12,9 18 10 29 16 SSW 1028,6 37 0,0
22.08.2019 11:00:00 19,5 12,7 20 11 25 13 SSW 1028,7 37 0,0
22.08.2019 10:00:00 19,2 12,5 12 7 18 10 SSW 1028,7 34 0,0
22.08.2019 09:00:00 18,2 12,4 9 5 13 7 SSW 1028,6 42 0,0
22.08.2019 08:00:00 17,3 11,6 8 4 13 7 SW 1028,4 37 0,0
22.08.2019 07:00:00 16,1 11,7 8 4 14 8 WSW 1028,2 40 0,0
22.08.2019 06:00:00 15,6 11,8 11 6 20 11 W 1028,2 42 0,0
22.08.2019 05:00:00 15,8 11,8 14 8 20 11 W 1027,9 45 0,0
22.08.2019 04:00:00 15,3 12,2 12 6 23 13 W 1027,7 40 0,0
22.08.2019 03:00:00 15,2 11,6 15 8 25 14 W 1027,7 46 0,0
22.08.2019 02:00:00 15,4 11,4 21 11 29 16 W 1027,5 46 0,0
22.08.2019 01:00:00 15,6 10,8 26 14 33 18 W 1027,2 46 0,0
22.08.2019 00:00:00 15,7 10,9 28 15 36 19 W 1026,9 49 0,0
21.08.2019 23:00:00 16,0 11,0 27 15 35 19 W 1026,4 46 0,0
21.08.2019 22:00:00 16,4 10,7 27 14 32 17 W 1025,9 49 0,0
21.08.2019 21:00:00 17,0 9,9 21 12 37 20 W 1025,6 50 0,0
21.08.2019 20:00:00 17,9 10,5 27 14 34 19 WNW 1025,0 50 0,0
21.08.2019 19:00:00 18,1 13,4 18 10 34 18 WSW 1024,6 50 0,0
21.08.2019 18:00:00 18,7 12,9 23 12 35 19 WSW 1024,4 41 0,0
21.08.2019 17:00:00 19,0 13,8 23 13 40 22 WSW 1024,3 32 0,0
21.08.2019 16:00:00 19,1 13,3 29 16 43 23 WSW 1024,1 31 0,0
21.08.2019 15:00:00 19,0 12,5 27 14 38 21 WSW 1024,0 33 0,0
21.08.2019 14:00:00 18,9 12,6 24 13 35 19 SW 1024,0 28 0,0
21.08.2019 13:00:00 18,9 13,1 24 13 33 18 SW 1024,0 26 0,0
21.08.2019 12:00:00 19,2 13,4 16 9 24 13 SW 1024,1 26 0,0
21.08.2019 11:00:00 18,8 12,8 16 8 21 11 WSW 1024,1 29 0,0
21.08.2019 10:00:00 18,5 13,6 9 5 19 10 W 1023,9 31 0,0
21.08.2019 09:00:00 17,6 12,5 16 9 24 13 WNW 1023,8 36 0,0
21.08.2019 08:00:00 17,1 12,0 19 11 23 12 WNW 1023,4 38 0,0
21.08.2019 07:00:00 17,4 14,1 12 7 18 10 W 1023,0 46 0,0
21.08.2019 06:00:00 17,4 13,3 9 5 14 8 WSW 1022,8 50 0,0
21.08.2019 05:00:00 17,3 13,4 8 4 13 7 SW 1022,8 48 0,0
21.08.2019 04:00:00 17,0 13,3 7 4 13 7 SW 1022,6 48 0,0
21.08.2019 03:00:00 16,8 12,3 8 4 15 8 WSW 1022,6 43 0,0
21.08.2019 02:00:00 17,3 12,2 13 7 18 10 WSW 1022,4 50 0,0
21.08.2019 01:00:00 17,1 12,6 13 7 21 12 SW 1022,4 50 0,0
21.08.2019 00:00:00 17,2 11,9 11 6 17 9 WSW 1022,3 50 0,0
20.08.2019 23:00:00 17,1 13,0 8 5 14 8 W 1021,8 50 0,0
20.08.2019 22:00:00 17,0 13,5 6 4 27 15 WNW 1021,5 45 0,0
20.08.2019 21:00:00 17,9 15,2 18 10 31 17 WSW 1021,4 31 0,0
20.08.2019 20:00:00 18,2 14,3 23 12 35 19 SW 1021,1 39 0,0
20.08.2019 19:00:00 18,4 14,1 24 13 35 19 SW 1020,6 29 0,0
20.08.2019 18:00:00 18,9 14,0 18 10 35 19 SW 1020,7 24 0,0
20.08.2019 17:00:00 19,7 14,3 20 11 36 20 SW 1020,5 29 0,0
20.08.2019 16:00:00 20,5 14,6 17 9 30 16 SW 1020,4 29 0,0
20.08.2019 15:00:00 20,4 16,0 21 11 29 15 SSW 1020,3 19 0,0
20.08.2019 14:00:00 20,5 15,7 18 10 26 14 SSW 1020,2 24 0,0
20.08.2019 13:00:00 20,7 15,3 13 7 24 13 SW 1020,3 26 0,0
20.08.2019 12:00:00 20,0 14,6 17 9 30 16 WSW 1020,2 28 0,0
20.08.2019 11:00:00 19,2 14,2 22 12 29 16 WSW 1019,9 21 0,0
20.08.2019 10:00:00 18,9 14,4 22 12 27 15 SW 1019,5 28 0,0
20.08.2019 09:00:00 18,8 14,5 14 8 23 12 WSW 1019,1 29 0,0
20.08.2019 08:00:00 18,1 14,4 16 8 26 14 WSW 1019,0 29 0,0
20.08.2019 07:00:00 17,4 14,1 17 9 29 15 WSW 1018,5 31 0,0
20.08.2019 06:00:00 17,2 13,7 14 8 23 12 SW 1018,0 31 0,0
20.08.2019 05:00:00 17,0 13,9 16 9 27 15 WSW 1017,5 23 0,0
20.08.2019 04:00:00 17,3 14,8 17 9 27 15 WSW 1017,2 27 0,0
20.08.2019 03:00:00 17,1 14,6 14 8 29 15 WSW 1016,8 24 0,0
20.08.2019 02:00:00 17,3 14,8 18 10 27 15 WSW 1016,6 25 0,0
20.08.2019 01:00:00 17,3 15,1 14 8 25 14 WSW 1016,4 25 0,0
20.08.2019 00:00:00 17,5 15,5 16 8 24 13 WSW 1015,9 24 0,0
19.08.2019 23:00:00 17,7 15,7 18 10 32 17 WSW 1015,5 20 0,0
19.08.2019 22:00:00 17,9 15,7 21 12 33 18 WSW 1015,5 22 0,0
19.08.2019 21:00:00 18,0 15,4 24 13 36 19 SW 1015,0 23 0,0
19.08.2019 20:00:00 18,1 15,4 26 14 40 21 WSW 1014,5 29 0,0
19.08.2019 19:00:00 18,4 15,5 22 12 39 21 SW 1014,0 25 0,0
19.08.2019 18:00:00 19,0 15,3 22 12 34 18 SW 1013,7 25 0,0
19.08.2019 17:00:00 19,3 16,0 18 10 30 16 SW 1013,3 25 0,0
19.08.2019 16:00:00 20,0 15,0 20 11 34 18 SW 1013,4 27 0,0
19.08.2019 15:00:00 20,1 15,3 22 12 34 18 SSW 1012,9 29 0,0
19.08.2019 14:00:00 20,5 15,9 16 9 27 14 SW 1012,8 29 0,1
19.08.2019 13:00:00 19,9 14,9 16 9 29 16 SW 1012,2 33 0,0
19.08.2019 12:00:00 19,2 15,1 17 9 30 16 WSW 1011,6 21 0,0
19.08.2019 11:00:00 18,7 15,4 18 10 29 16 WSW 1011,4 26 0,0
19.08.2019 10:00:00 18,1 14,4 19 10 33 18 WSW 1011,0 27 0,0
19.08.2019 09:00:00 17,3 14,2 18 10 31 17 W 1010,4 28 0,0
19.08.2019 08:00:00 16,8 13,7 24 13 32 17 W 1010,2 27 0,0
19.08.2019 07:00:00 16,0 12,7 22 12 36 19 W 1009,5 31 0,0
19.08.2019 06:00:00 15,8 13,5 24 13 39 21 W 1008,8 37 0,0
19.08.2019 05:00:00 15,7 13,4 31 17 42 23 W 1007,9 50 0,0
19.08.2019 04:00:00 16,0 13,8 18 10 40 22 W 1006,6 50 0,0
19.08.2019 03:00:00 16,4 14,1 32 17 45 24 W 1005,9 50 0,0
19.08.2019 02:00:00 16,9 15,2 29 16 46 25 W 1005,1 50 0,0

tt = Température de l'air
td = dewpoint
ff = Vitesse du vent
fx = gusts
dd = Direction du vent
ppp = reduced air pressure
vv = visibility
rr = Quantités de précipitations

stations d'obs. à proximité